| time (UTC) | temp F | wind direction | speed MPH | gust MPH | rain 1hr in | rain 24hr in | rain mn in | humidity % | barometer mb |
| 20260506230535 | 62 | 0 | 2.0 | 5.0 | 0.00 | 0.35 | 0.06 | 43 | 1016.4 |
| 20260506225516 | 63 | 0 | 2.0 | 3.0 | 0.00 | 0.36 | 0.06 | 44 | 1016.3 |
| 20260506224515 | 62 | 315 | 2.0 | 4.0 | 0.00 | 0.36 | 0.06 | 45 | 1016.3 |
| 20260506223517 | 62 | 0 | 2.0 | 5.0 | 0.00 | 0.37 | 0.06 | 43 | 1016.4 |
| 20260506222517 | 63 | 315 | 2.0 | 7.0 | 0.00 | 0.37 | 0.06 | 43 | 1016.5 |
| 20260506221519 | 62 | 270 | 2.0 | 5.0 | 0.00 | 0.37 | 0.06 | 43 | 1016.5 |
| 20260506220517 | 63 | 293 | 3.0 | 7.0 | 0.00 | 0.38 | 0.06 | 42 | 1016.6 |
| 20260506215517 | 62 | 293 | 2.0 | 5.0 | 0.00 | 0.38 | 0.06 | 44 | 1016.6 |
| 20260506214518 | 62 | 0 | 2.0 | 6.0 | 0.00 | 0.38 | 0.06 | 44 | 1016.6 |
| 20260506213517 | 62 | 315 | 2.0 | 5.0 | 0.00 | 0.38 | 0.06 | 46 | 1016.6 |
| 20260506212517 | 62 | 293 | 1.0 | 3.0 | 0.00 | 0.38 | 0.06 | 44 | 1016.6 |
| 20260506211538 | 64 | 293 | 3.0 | 7.0 | 0.00 | 0.38 | 0.06 | 43 | 1016.8 |
| 20260506210517 | 63 | 0 | 2.0 | 7.0 | 0.00 | 0.38 | 0.06 | 45 | 1016.8 |
| 20260506205515 | 63 | 293 | 3.0 | 5.0 | 0.00 | 0.38 | 0.06 | 43 | 1016.8 |
| 20260506204519 | 62 | 315 | 3.0 | 9.0 | 0.00 | 0.38 | 0.06 | 43 | 1016.8 |
| 20260506203517 | 62 | 293 | 3.0 | 7.0 | 0.00 | 0.38 | 0.06 | 41 | 1017.1 |
| 20260506202518 | 63 | 293 | 4.0 | 8.0 | 0.00 | 0.38 | 0.06 | 40 | 1017.3 |
| 20260506201518 | 63 | 270 | 1.0 | 5.0 | 0.00 | 0.38 | 0.06 | 39 | 1017.3 |
| 20260506200519 | 64 | 293 | 3.0 | 5.0 | 0.00 | 0.38 | 0.06 | 38 | 1017.3 |
| 20260506195517 | 63 | 293 | 3.0 | 9.0 | 0.00 | 0.38 | 0.06 | 41 | 1017.4 |
| 20260506194517 | 63 | 0 | 2.0 | 6.0 | 0.00 | 0.38 | 0.06 | 44 | 1017.4 |
| 20260506193517 | 63 | 293 | 3.0 | 6.0 | 0.00 | 0.38 | 0.06 | 45 | 1017.4 |
| 20260506192517 | 64 | 0 | 2.0 | 8.0 | 0.00 | 0.38 | 0.06 | 44 | 1017.3 |
| 20260506191517 | 63 | 338 | 3.0 | 6.0 | 0.00 | 0.38 | 0.06 | 44 | 1017.3 |
| 20260506190517 | 63 | 315 | 3.0 | 8.0 | 0.00 | 0.38 | 0.06 | 44 | 1017.2 |
| 20260506185517 | 63 | 315 | 3.0 | 7.0 | 0.00 | 0.38 | 0.06 | 43 | 1017.2 |
| 20260506184517 | 63 | 338 | 3.0 | 8.0 | 0.00 | 0.38 | 0.06 | 44 | 1017.1 |
| 20260506183537 | 62 | 293 | 3.0 | 7.0 | 0.00 | 0.38 | 0.06 | 42 | 1017.0 |
| 20260506182517 | 62 | 270 | 3.0 | 6.0 | 0.00 | 0.38 | 0.06 | 46 | 1017.0 |
| 20260506181517 | 61 | 293 | 3.0 | 7.0 | 0.00 | 0.38 | 0.06 | 51 | 1017.4 |
| 20260506180517 | 61 | 338 | 3.0 | 7.0 | 0.00 | 0.38 | 0.06 | 53 | 1017.6 |
| 20260506175519 | 61 | 0 | 3.0 | 7.0 | 0.00 | 0.38 | 0.06 | 57 | 1017.7 |
| 20260506174517 | 61 | 338 | 2.0 | 6.0 | 0.00 | 0.38 | 0.06 | 58 | 1017.7 |
| 20260506173517 | 60 | 338 | 3.0 | 6.0 | 0.00 | 0.38 | 0.06 | 61 | 1017.6 |
| 20260506172517 | 58 | 0 | 2.0 | 5.0 | 0.00 | 0.38 | 0.06 | 66 | 1017.5 |
| 20260506171517 | 57 | 270 | 2.0 | 7.0 | 0.00 | 0.38 | 0.06 | 68 | 1017.6 |
| 20260506170517 | 57 | 293 | 2.0 | 7.0 | 0.00 | 0.38 | 0.06 | 69 | 1017.6 |
| 20260506165537 | 57 | 315 | 2.0 | 6.0 | 0.00 | 0.38 | 0.06 | 71 | 1017.5 |
| 20260506164537 | 55 | 338 | 3.0 | 6.0 | 0.00 | 0.38 | 0.06 | 73 | 1017.5 |
| 20260506163517 | 54 | 293 | 3.0 | 7.0 | 0.00 | 0.38 | 0.06 | 76 | 1017.5 |
| 20260506162517 | 54 | 293 | 3.0 | 6.0 | 0.00 | 0.38 | 0.06 | 78 | 1017.4 |
| 20260506161517 | 54 | 293 | 4.0 | 6.0 | 0.00 | 0.38 | 0.06 | 80 | 1017.3 |
| 20260506160537 | 54 | 293 | 2.0 | 4.0 | 0.00 | 0.38 | 0.06 | 81 | 1017.1 |
| 20260506155517 | 53 | 293 | 2.0 | 6.0 | 0.00 | 0.38 | 0.06 | 82 | 1017.0 |
| 20260506154517 | 53 | 338 | 1.0 | 3.0 | 0.00 | 0.38 | 0.06 | 84 | 1016.7 |
| 20260506153517 | 52 | 338 | 2.0 | 4.0 | 0.00 | 0.38 | 0.06 | 86 | 1016.6 |
| 20260506152517 | 51 | 293 | 2.0 | 5.0 | 0.00 | 0.38 | 0.06 | 87 | 1016.7 |
| 20260506151517 | 51 | 293 | 2.0 | 5.0 | 0.00 | 0.38 | 0.06 | 88 | 1016.6 |
| 20260506150517 | 51 | 0 | 2.0 | 4.0 | 0.00 | 0.38 | 0.06 | 89 | 1016.5 |
| 20260506145517 | 51 | 293 | 2.0 | 5.0 | 0.00 | 0.38 | 0.06 | 87 | 1016.5 |
| 20260506144517 | 50 | 23 | 2.0 | 5.0 | 0.00 | 0.38 | 0.06 | 84 | 1016.6 |
| 20260506143518 | 49 | 293 | 2.0 | 7.0 | 0.00 | 0.38 | 0.06 | 80 | 1016.5 |
| 20260506142537 | 49 | 315 | 2.0 | 7.0 | 0.00 | 0.38 | 0.06 | 79 | 1016.4 |
| 20260506141518 | 48 | 338 | 2.0 | 4.0 | 0.00 | 0.38 | 0.06 | 79 | 1016.4 |
| 20260506140559 | 48 | 293 | 2.0 | 6.0 | 0.00 | 0.38 | 0.06 | 79 | 1016.5 |
| 20260506135518 | 48 | 338 | 1.0 | 2.0 | 0.00 | 0.38 | 0.06 | 78 | 1016.4 |
| 20260506134517 | 47 | 293 | 2.0 | 5.0 | 0.00 | 0.38 | 0.06 | 78 | 1016.4 |
| 20260506133518 | 47 | 315 | 2.0 | 4.0 | 0.00 | 0.38 | 0.06 | 78 | 1016.4 |
| 20260506132517 | 47 | 315 | 2.0 | 4.0 | 0.00 | 0.38 | 0.06 | 78 | 1016.3 |
| 20260506131516 | 47 | 293 | 1.0 | 3.0 | 0.00 | 0.39 | 0.06 | 78 | 1016.1 |
| 20260506130517 | 46 | 293 | 1.0 | 2.0 | 0.00 | 0.40 | 0.06 | 79 | 1016.0 |
| 20260506125517 | 46 | 293 | 1.0 | 3.0 | 0.00 | 0.43 | 0.06 | 78 | 1015.8 |
| 20260506124517 | 46 | 293 | 1.0 | 2.0 | 0.00 | 0.49 | 0.06 | 78 | 1015.6 |
| 20260506123517 | 46 | 293 | 1.0 | 3.0 | 0.00 | 0.53 | 0.06 | 78 | 1015.8 |
| 20260506122517 | 46 | 0 | 1.0 | 4.0 | 0.00 | 0.53 | 0.06 | 79 | 1016.0 |
| 20260506121517 | 46 | 315 | 2.0 | 5.0 | 0.00 | 0.57 | 0.06 | 79 | 1015.7 |
| 20260506120516 | 46 | 315 | 1.0 | 5.0 | 0.00 | 0.57 | 0.06 | 79 | 1015.4 |
| 20260506115517 | 46 | 270 | 1.0 | 3.0 | 0.00 | 0.57 | 0.06 | 79 | 1015.3 |
| 20260506114516 | 45 | 180 | 1.0 | 3.0 | 0.00 | 0.59 | 0.06 | 79 | 1015.5 |
| 20260506113516 | 45 | 180 | 1.0 | 2.0 | 0.00 | 0.59 | 0.06 | 79 | 1015.6 |
| 20260506112517 | 45 | 0.0 | 2.0 | 0.00 | 0.59 | 0.06 | 79 | 1015.1 | |
| 20260506111516 | 45 | 180 | 1.0 | 2.0 | 0.00 | 0.59 | 0.06 | 79 | 1014.8 |
| 20260506110518 | 45 | 180 | 1.0 | 2.0 | 0.00 | 0.59 | 0.06 | 79 | 1014.7 |
| 20260506105517 | 45 | 0.0 | 2.0 | 0.00 | 0.59 | 0.06 | 79 | 1014.4 | |
| 20260506104516 | 45 | 293 | 1.0 | 2.0 | 0.00 | 0.59 | 0.06 | 79 | 1014.0 |
| 20260506103518 | 45 | 0.0 | 2.0 | 0.00 | 0.59 | 0.06 | 79 | 1013.9 | |
| 20260506102518 | 45 | 293 | 1.0 | 3.0 | 0.01 | 0.59 | 0.06 | 79 | 1013.7 |
| 20260506101517 | 45 | 293 | 1.0 | 2.0 | 0.01 | 0.59 | 0.06 | 79 | 1013.8 |
| 20260506100516 | 45 | 293 | 1.0 | 2.0 | 0.01 | 0.59 | 0.06 | 79 | 1014.0 |
| 20260506095518 | 45 | 0.0 | 1.0 | 0.01 | 0.59 | 0.06 | 79 | 1013.6 | |
| 20260506094516 | 45 | 293 | 1.0 | 2.0 | 0.01 | 0.59 | 0.06 | 79 | 1013.3 |
| 20260506093556 | 45 | 293 | 1.0 | 2.0 | 0.01 | 0.59 | 0.06 | 79 | 1013.6 |
| 20260506092536 | 45 | 293 | 1.0 | 3.0 | 0.00 | 0.58 | 0.05 | 79 | 1013.6 |
| 20260506091516 | 45 | 293 | 1.0 | 2.0 | 0.00 | 0.58 | 0.05 | 79 | 1014.1 |
| 20260506090516 | 45 | 293 | 2.0 | 4.0 | 0.00 | 0.58 | 0.05 | 79 | 1014.2 |
| 20260506085659 | 45 | 315 | 2.0 | 6.0 | 0.00 | 0.58 | 0.05 | 79 | 1014.3 |
| 20260506084538 | 45 | 315 | 2.0 | 5.0 | 0.00 | 0.58 | 0.05 | 79 | 1013.7 |
| 20260506083516 | 45 | 315 | 1.0 | 3.0 | 0.00 | 0.58 | 0.05 | 79 | 1013.5 |
| 20260506082516 | 45 | 315 | 1.0 | 2.0 | 0.00 | 0.58 | 0.05 | 80 | 1013.6 |
| 20260506081516 | 45 | 315 | 1.0 | 2.0 | 0.00 | 0.58 | 0.05 | 80 | 1013.5 |
| 20260506080516 | 45 | 315 | 1.0 | 3.0 | 0.00 | 0.58 | 0.05 | 80 | 1013.5 |
| 20260506073516 | 45 | 338 | 1.0 | 2.0 | 0.01 | 0.58 | 0.05 | 80 | 1013.2 |
| 20260506072536 | 45 | 338 | 2.0 | 4.0 | 0.01 | 0.58 | 0.05 | 80 | 1013.1 |
| 20260506071516 | 46 | 315 | 2.0 | 5.0 | 0.02 | 0.58 | 0.05 | 80 | 1013.4 |
| 20260506070516 | 45 | 315 | 2.0 | 6.0 | 0.02 | 0.58 | 0.05 | 80 | 1013.7 |
| 20260506062516 | 45 | 315 | 1.0 | 2.0 | 0.03 | 0.57 | 0.04 | 80 | 1013.5 |
| 20260506061537 | 45 | 315 | 1.0 | 2.0 | 0.03 | 0.56 | 0.03 | 81 | 1013.1 |
| 20260506060516 | 45 | 315 | 1.0 | 2.0 | 0.03 | 0.56 | 0.03 | 81 | 1013.3 |
| 20260506050516 | 45 | 0.0 | 1.0 | 0.01 | 0.53 | 0.00 | 82 | 1013.0 | |
| 20260506044518 | 45 | 338 | 1.0 | 3.0 | 0.02 | 0.53 | 0.53 | 82 | 1012.7 |
| 20260506043517 | 45 | 338 | 1.0 | 2.0 | 0.01 | 0.52 | 0.52 | 82 | 1012.9 |
| 20260506042517 | 45 | 0.0 | 1.0 | 0.01 | 0.52 | 0.52 | 82 | 1013.0 | |
| 20260506041518 | 45 | 338 | 1.0 | 2.0 | 0.01 | 0.52 | 0.52 | 83 | 1013.4 |
| 20260506040556 | 45 | 0.0 | 2.0 | 0.02 | 0.52 | 0.52 | 83 | 1013.2 | |
| 20260506035536 | 45 | 0.0 | 2.0 | 0.01 | 0.51 | 0.51 | 83 | 1013.1 | |
| 20260506034516 | 45 | 0.0 | 2.0 | 0.01 | 0.51 | 0.51 | 83 | 1013.3 | |
| 20260506033516 | 44 | 338 | 1.0 | 2.0 | 0.01 | 0.51 | 0.51 | 84 | 1013.1 |
| 20260506032516 | 45 | 338 | 1.0 | 2.0 | 0.01 | 0.51 | 0.51 | 84 | 1013.0 |
| 20260506031516 | 44 | 338 | 1.0 | 3.0 | 0.01 | 0.51 | 0.51 | 84 | 1012.7 |
| 20260506030516 | 44 | 338 | 1.0 | 3.0 | 0.00 | 0.50 | 0.50 | 84 | 1012.3 |
| 20260506025516 | 44 | 0.0 | 2.0 | 0.00 | 0.50 | 0.50 | 84 | 1012.2 | |
| 20260506024516 | 44 | 0.0 | 1.0 | 0.01 | 0.50 | 0.50 | 84 | 1012.1 | |
| 20260506023516 | 44 | 338 | 2.0 | 4.0 | 0.01 | 0.50 | 0.50 | 85 | 1012.2 |
| 20260506022516 | 44 | 293 | 1.0 | 3.0 | 0.05 | 0.50 | 0.50 | 85 | 1012.2 |
| 20260506021516 | 44 | 0 | 1.0 | 4.0 | 0.06 | 0.50 | 0.50 | 85 | 1012.1 |
| 20260506020536 | 44 | 0 | 2.0 | 5.0 | 0.07 | 0.50 | 0.50 | 85 | 1012.2 |
| 20260506015536 | 44 | 315 | 1.0 | 3.0 | 0.07 | 0.50 | 0.50 | 85 | 1012.5 |
| 20260506014516 | 45 | 338 | 2.0 | 6.0 | 0.08 | 0.49 | 0.49 | 85 | 1011.7 |
| 20260506013516 | 45 | 338 | 2.0 | 6.0 | 0.10 | 0.49 | 0.49 | 86 | 1011.4 |
| 20260506012516 | 45 | 315 | 2.0 | 4.0 | 0.08 | 0.45 | 0.45 | 86 | 1012.3 |
| 20260506011516 | 45 | 315 | 2.0 | 4.0 | 0.08 | 0.44 | 0.44 | 86 | 1011.7 |
| 20260506010536 | 45 | 23 | 2.0 | 6.0 | 0.07 | 0.43 | 0.43 | 86 | 1011.3 |
| 20260506005516 | 45 | 315 | 3.0 | 8.0 | 0.08 | 0.43 | 0.43 | 86 | 1011.2 |
| 20260506004516 | 46 | 293 | 2.0 | 7.0 | 0.07 | 0.41 | 0.41 | 86 | 1011.4 |
| 20260506003536 | 46 | 293 | 2.0 | 6.0 | 0.08 | 0.39 | 0.39 | 86 | 1011.3 |
| 20260506002516 | 46 | 0 | 3.0 | 5.0 | 0.09 | 0.37 | 0.37 | 86 | 1010.6 |
| 20260506001516 | 46 | 293 | 1.0 | 3.0 | 0.10 | 0.36 | 0.36 | 86 | 1010.9 |
| 20260506000536 | 46 | 0 | 2.0 | 6.0 | 0.12 | 0.36 | 0.36 | 87 | 1011.1 |
| 20260505235516 | 46 | 0 | 3.0 | 6.0 | 0.12 | 0.35 | 0.35 | 87 | 1010.5 |
| 20260505234516 | 47 | 293 | 2.0 | 6.0 | 0.11 | 0.34 | 0.34 | 88 | 1010.6 |
| 20260505233516 | 47 | 338 | 2.0 | 5.0 | 0.09 | 0.31 | 0.31 | 88 | 1010.3 |
| 20260505232516 | 47 | 293 | 2.0 | 5.0 | 0.06 | 0.28 | 0.28 | 88 | 1010.8 |
| 20260505231516 | 47 | 315 | 3.0 | 6.0 | 0.04 | 0.26 | 0.26 | 88 | 1010.3 |